• In Hungary
  • List of Countries
  • For 7 days
  • Water Temperature
  • Satellite Maps
  • Weather Map
  • News
  • Weather Widgets
  • user-avatar
    Login

    Hourly Weather Beldino

    Today, 19 August, Sunday

    Time Temperature Precipitation Wind Pressure Humidity
    00:00 +16°C° 0 mm 1 mps 750 mmHg 78%
    01:00 +15°C° 0 mm 1 mps 750 mmHg 80%
    02:00 +15°C° 0 mm 1 mps 750 mmHg 82%
    03:00 +15°C° 0 mm 1 mps 750 mmHg 82%
    04:00 +15°C° 0 mm 1 mps 750 mmHg 83%
    05:00 +15°C° 0 mm 1 mps 750 mmHg 84%
    06:00 +17°C° 0 mm 2 mps 750 mmHg 77%
    07:00 +19°C° 0 mm 2 mps 750 mmHg 71%
    08:00 +21°C° 0 mm 2 mps 750 mmHg 64%
    09:00 +24°C° 0 mm 2 mps 750 mmHg 59%
    10:00 +25°C° 0 mm 2 mps 750 mmHg 54%
    11:00 +26°C° 0 mm 2 mps 750 mmHg 49%
    12:00 +26°C° 0 mm 3 mps 749 mmHg 47%
    13:00 +27°C° 0 mm 3 mps 749 mmHg 46%
    14:00 +27°C° 0 mm 3 mps 749 mmHg 45%
    15:00 +27°C° 0 mm 3 mps 749 mmHg 48%
    16:00 +26°C° 0 mm 2 mps 748 mmHg 52%
    17:00 +26°C° 0 mm 2 mps 748 mmHg 55%
    18:00 +24°C° 0 mm 2 mps 748 mmHg 59%
    19:00 +21°C° 0 mm 2 mps 748 mmHg 63%
    20:00 +19°C° 0 mm 2 mps 748 mmHg 68%
    21:00 +19°C° 0 mm 2 mps 748 mmHg 69%
    22:00 +18°C° 0 mm 2 mps 748 mmHg 70%
    23:00 +18°C° 0 mm 2 mps 748 mmHg 72%

    Tomorrow, 20 August, Monday

    Time Temperature Precipitation Wind Pressure Humidity
    00:00 +17°C° 0 mm 2 mps 748 mmHg 73%
    01:00 +17°C° 0 mm 2 mps 747 mmHg 74%
    02:00 +17°C° 0 mm 2 mps 747 mmHg 75%
    03:00 +16°C° 0 mm 2 mps 747 mmHg 77%
    04:00 +16°C° 0 mm 2 mps 747 mmHg 78%
    05:00 +16°C° 0 mm 2 mps 747 mmHg 80%
    06:00 +18°C° 0 mm 2 mps 747 mmHg 75%
    07:00 +19°C° 0 mm 2 mps 747 mmHg 71%
    08:00 +21°C° 0 mm 2 mps 747 mmHg 66%
    09:00 +24°C° 0 mm 3 mps 747 mmHg 62%
    10:00 +25°C° 0 mm 3 mps 747 mmHg 58%
    11:00 +27°C° 0 mm 3 mps 747 mmHg 54%
    12:00 +27°C° 0.4 mm 3 mps 747 mmHg 55%
    13:00 +27°C° 0.4 mm 4 mps 746 mmHg 55%
    14:00 +28°C° 0.4 mm 4 mps 746 mmHg 56%
    15:00 +27°C° 0.4 mm 4 mps 745 mmHg 60%
    16:00 +27°C° 0.4 mm 3 mps 745 mmHg 64%
    17:00 +26°C° 0.4 mm 2 mps 745 mmHg 68%
    18:00 +24°C° 0 mm 2 mps 745 mmHg 73%
    19:00 +23°C° 0 mm 2 mps 745 mmHg 78%
    20:00 +20°C° 0 mm 2 mps 745 mmHg 82%
    21:00 +20°C° 0 mm 2 mps 744 mmHg 84%
    22:00 +19°C° 0 mm 2 mps 744 mmHg 85%
    23:00 +19°C° 0 mm 2 mps 744 mmHg 86%

    Day after tomorrow, 21 August, Tuesday

    Time Temperature Precipitation Wind Pressure Humidity
    00:00 +18°C° 0 mm 2 mps 744 mmHg 87%
    01:00 +18°C° 0 mm 2 mps 744 mmHg 89%
    02:00 +18°C° 0 mm 3 mps 743 mmHg 90%
    03:00 +18°C° 0 mm 3 mps 743 mmHg 90%
    04:00 +18°C° 0 mm 3 mps 743 mmHg 91%
    05:00 +18°C° 0 mm 3 mps 743 mmHg 92%
    06:00 +19°C° 0 mm 4 mps 743 mmHg 85%
    07:00 +21°C° 0 mm 5 mps 742 mmHg 78%
    08:00 +23°C° 0 mm 6 mps 742 mmHg 71%
    09:00 +24°C° 0.4 mm 6 mps 742 mmHg 68%
    10:00 +26°C° 0.4 mm 7 mps 742 mmHg 65%
    11:00 +27°C° 0.4 mm 7 mps 741 mmHg 62%
    12:00 +26°C° 1 mm 7 mps 741 mmHg 65%
    13:00 +26°C° 1 mm 7 mps 741 mmHg 68%
    14:00 +24°C° 1 mm 7 mps 741 mmHg 70%
    15:00 +24°C° 0.5 mm 6 mps 741 mmHg 71%
    16:00 +23°C° 0.5 mm 5 mps 741 mmHg 73%
    17:00 +22°C° 0.5 mm 5 mps 741 mmHg 74%
    18:00 +21°C° 0 mm 4 mps 741 mmHg 77%
    19:00 +19°C° 0 mm 4 mps 742 mmHg 80%
    20:00 +17°C° 0 mm 3 mps 742 mmHg 83%
    21:00 +16°C° 0 mm 3 mps 743 mmHg 84%
    22:00 +16°C° 0 mm 3 mps 743 mmHg 85%
    23:00 +14°C° 0 mm 3 mps 744 mmHg 87%

    22 August, Wednesday

    Time Temperature Precipitation Wind Pressure Humidity
    00:00 +13°C° 0 mm 3 mps 744 mmHg 85%
    01:00 +13°C° 0 mm 3 mps 744 mmHg 83%
    02:00 +12°C° 0 mm 3 mps 745 mmHg 82%
    03:00 +11°C° 0 mm 3 mps 745 mmHg 82%
    04:00 +11°C° 0 mm 3 mps 746 mmHg 83%
    05:00 +10°C° 0 mm 3 mps 746 mmHg 84%
    06:00 +12°C° 0 mm 4 mps 746 mmHg 76%
    07:00 +13°C° 0 mm 4 mps 747 mmHg 69%
    08:00 +15°C° 0 mm 5 mps 747 mmHg 62%
    09:00 +16°C° 0 mm 5 mps 747 mmHg 57%
    10:00 +17°C° 0 mm 5 mps 748 mmHg 52%
    11:00 +19°C° 0 mm 5 mps 748 mmHg 47%
    12:00 +20°C° 0 mm 5 mps 748 mmHg 46%
    13:00 +20°C° 0 mm 5 mps 748 mmHg 45%
    14:00 +21°C° 0 mm 5 mps 748 mmHg 44%
    15:00 +20°C° 0 mm 4 mps 748 mmHg 48%
    16:00 +20°C° 0 mm 3 mps 749 mmHg 52%
    17:00 +19°C° 0 mm 3 mps 749 mmHg 55%
    18:00 +17°C° 0 mm 2 mps 749 mmHg 61%
    19:00 +15°C° 0 mm 2 mps 750 mmHg 66%
    20:00 +13°C° 0 mm 2 mps 750 mmHg 72%
    21:00 +13°C° 0 mm 1 mps 750 mmHg 74%
    22:00 +12°C° 0 mm 1 mps 751 mmHg 76%
    23:00 +11°C° 0 mm 1 mps 751 mmHg 78%

    23 August, Thursday

    Time Temperature Precipitation Wind Pressure Humidity
    00:00 +11°C° 0 mm 1 mps 751 mmHg 79%
    01:00 +11°C° 0 mm 1 mps 751 mmHg 80%
    02:00 +9°C° 0 mm 0 mps 752 mmHg 80%
    03:00 +9°C° 0 mm 0 mps 752 mmHg 80%
    04:00 +9°C° 0 mm 0 mps 752 mmHg 81%
    05:00 +9°C° 0 mm 0 mps 752 mmHg 81%
    06:00 +11°C° 0 mm 0 mps 752 mmHg 73%
    07:00 +14°C° 0 mm 1 mps 752 mmHg 66%
    08:00 +16°C° 0 mm 1 mps 753 mmHg 59%
    09:00 +18°C° 0 mm 1 mps 752 mmHg 54%
    10:00 +20°C° 0 mm 1 mps 752 mmHg 50%
    11:00 +21°C° 0 mm 1 mps 752 mmHg 45%
    12:00 +21°C° 0 mm 1 mps 752 mmHg 43%
    13:00 +22°C° 0 mm 1 mps 752 mmHg 42%
    14:00 +22°C° 0 mm 1 mps 751 mmHg 41%
    15:00 +22°C° 0 mm 1 mps 751 mmHg 44%
    16:00 +22°C° 0 mm 1 mps 751 mmHg 47%
    17:00 +22°C° 0 mm 1 mps 751 mmHg 51%
    18:00 +20°C° 0 mm 1 mps 751 mmHg 54%
    19:00 +17°C° 0 mm 2 mps 751 mmHg 58%
    20:00 +15°C° 0 mm 2 mps 751 mmHg 61%
    21:00 +14°C° 0 mm 2 mps 751 mmHg 62%
    22:00 +14°C° 0 mm 2 mps 751 mmHg 63%
    23:00 +13°C° 0 mm 2 mps 751 mmHg 64%

    24 August, Friday

    Time Temperature Precipitation Wind Pressure Humidity
    00:00 +13°C° 0 mm 2 mps 751 mmHg 65%
    01:00 +13°C° 0 mm 2 mps 751 mmHg 66%
    02:00 +12°C° 0 mm 2 mps 751 mmHg 67%
    03:00 +12°C° 0 mm 2 mps 751 mmHg 68%
    04:00 +12°C° 0 mm 2 mps 751 mmHg 69%
    05:00 +10°C° 0 mm 2 mps 751 mmHg 70%
    06:00 +13°C° 0 mm 2 mps 751 mmHg 66%
    07:00 +15°C° 0 mm 2 mps 751 mmHg 61%
    08:00 +18°C° 0 mm 2 mps 751 mmHg 57%
    09:00 +19°C° 0 mm 2 mps 751 mmHg 52%
    10:00 +20°C° 0 mm 3 mps 751 mmHg 48%
    11:00 +22°C° 0 mm 3 mps 751 mmHg 43%
    12:00 +22°C° 0 mm 3 mps 751 mmHg 42%
    13:00 +24°C° 0 mm 3 mps 750 mmHg 41%
    14:00 +24°C° 0 mm 3 mps 750 mmHg 40%
    15:00 +24°C° 0 mm 3 mps 750 mmHg 44%
    16:00 +23°C° 0 mm 2 mps 750 mmHg 48%
    17:00 +23°C° 0 mm 2 mps 749 mmHg 52%
    18:00 +20°C° 0 mm 2 mps 749 mmHg 56%
    19:00 +18°C° 0 mm 2 mps 749 mmHg 61%
    20:00 +16°C° 0 mm 2 mps 749 mmHg 65%
    21:00 +15°C° 0 mm 2 mps 749 mmHg 66%
    22:00 +15°C° 0 mm 2 mps 749 mmHg 66%
    23:00 +14°C° 0 mm 2 mps 749 mmHg 67%
    Show more